Flag for Germany Weather past 2 weeks in Garmisch-Partenkirchen, Bavaria, Germany

Now
70 °F

Scattered clouds.


Feels Like: 70 °F
Forecast: 51 / 68 °F
Wind: 9 mph from East

Location: Innsbruck-Flughafen

Current Time: Aug 22, 2014 at 6:38:06 PM

Latest Report: Aug 22, 2014 at 5:50 PM


Visibility: N/A

Pressure: 29.95 "Hg

Humidity: 50%

Dew point: 50 °F

Location of Garmisch-PartenkirchenLocation

Historic Weather in Garmisch-Partenkirchen — Graph

°F

Garmisch-Partenkirchen temperature yesterday

Maximum temperature yesterday: 66 °F (at 2:20 PM)
Minimum temperature yesterday: 54 °F (at 12:50 AM)
Average temperature yesterday: 59 °F

Past Weeks' High & Low Weather Summary

 TemperatureHumidityPressure
High84 °F (Aug 10, 3:20 PM)100% (Aug 7, 10:50 PM)30.21 "Hg (Aug 7, 10:50 PM)
Low46 °F (Aug 17, 5:20 AM)31% (Aug 17, 4:20 PM)29.71 "Hg (Aug 13, 3:50 PM)
Average61 °F80%30.00 "Hg
* Reported Aug 7 5:20 PM — Aug 22 5:20 PM, Garmisch-Partenkirchen, Weather by CustomWeather, © 2014

Note: Actual official high and low records may vary slightly from our data, if they occured in-between our weather recording intervals... More about our weather records

Advertising

Garmisch-Partenkirchen weather history for previous 24 hours

 ConditionsComfort  
Time TempWeatherWind HumidityBarometerVisibility
5:20 PM
Aug 22
70 °FScattered clouds.13 mph50%29.95 "HgN/A
4:50 PM70 °FScattered clouds.13 mph50%29.95 "HgN/A
4:20 PM70 °FScattered clouds.13 mph50%29.95 "HgN/A
3:50 PM72 °FScattered clouds.12 mph50%29.95 "HgN/A
3:20 PM72 °FScattered clouds.7 mph50%29.95 "HgN/A
2:50 PM72 °FPassing clouds.3 mph53%29.95 "HgN/A
2:20 PM70 °FScattered clouds.5 mph53%29.98 "HgN/A
1:50 PM70 °FScattered clouds.3 mph50%29.98 "HgN/A
1:20 PM70 °FScattered clouds.1 mph50%29.98 "HgN/A
12:50 PM68 °FScattered clouds.3 mph53%29.98 "HgN/A
12:20 PM66 °FScattered clouds.2 mph60%30.01 "HgN/A
11:50 AM64 °FPassing clouds.3 mph60%30.01 "HgN/A
11:20 AM64 °FScattered clouds.2 mph64%30.01 "HgN/A
10:50 AM63 °FPartly sunny.3 mph64%30.04 "HgN/A
10:20 AM61 °FScattered clouds.3 mph68%30.04 "HgN/A
9:50 AM59 °FScattered clouds.2 mph68%30.04 "HgN/A
9:20 AM57 °FPassing clouds.2 mph77%30.04 "HgN/A
8:50 AM55 °FPassing clouds.2 mph82%30.04 "HgN/A
8:20 AM52 °FPassing clouds.1 mph94%30.04 "HgN/A
7:50 AM50 °FScattered clouds.3 mph94%30.04 "HgN/A
7:20 AM50 °FScattered clouds.2 mph94%30.04 "HgN/A
6:50 AM48 °FPassing clouds.2 mph100%30.04 "HgN/A
6:20 AM48 °FPassing clouds.1 mph94%30.04 "HgN/A
5:50 AM48 °FPassing clouds.2 mph100%30.04 "HgN/A
5:20 AM50 °FPassing clouds.3 mph94%30.04 "HgN/A
4:50 AM50 °FPassing clouds.5 mph94%30.04 "HgN/A
4:20 AM52 °FPassing clouds.2 mph94%30.04 "HgN/A
3:50 AM52 °FPassing clouds.1 mph94%30.07 "HgN/A
3:20 AM52 °FPassing clouds.3 mph94%30.07 "HgN/A
2:50 AM52 °FPassing clouds.5 mph100%30.07 "HgN/A
2:20 AM52 °FPassing clouds.1 mph100%30.07 "HgN/A
1:50 AM52 °FPassing clouds.1 mph100%30.07 "HgN/A
1:20 AM54 °FPassing clouds.2 mph94%30.07 "HgN/A
12:50 AM54 °FPassing clouds.2 mph94%30.07 "HgN/A
12:20 AM55 °FOvercast.2 mph94%30.07 "HgN/A
11:50 PM
Aug 21
55 °FPassing clouds.3 mph88%30.07 "HgN/A
11:20 PM55 °FPartly cloudy.1 mph88%30.07 "HgN/A
10:50 PM55 °FSprinkles. Partly cloudy.1 mph94%30.07 "HgN/A
10:20 PM55 °FSprinkles. Partly cloudy.2 mph88%30.07 "HgN/A
9:50 PM57 °FSprinkles. Partly cloudy.2 mph88%30.07 "HgN/A
9:20 PM59 °FSprinkles. Partly cloudy.7 mph77%30.07 "HgN/A
8:50 PM61 °FSprinkles. Broken clouds.2 mph68%30.04 "HgN/A
8:20 PM61 °FBroken clouds.3 mph68%30.04 "HgN/A
7:50 PM61 °FBroken clouds.7 mph63%30.01 "HgN/A
7:20 PM63 °FBroken clouds.6 mph64%30.01 "HgN/A
6:50 PM63 °FPartly sunny.7 mph59%30.01 "HgN/A
6:20 PM63 °FPartly sunny.7 mph59%30.01 "HgN/A
Weather by CustomWeather, © 2014

See weather overviewHow to use our weather pages